Find Kosmos-44

NORAD ID: 876 Int'l Des: 1964-053 Owner: VNIEM Country: SU operational
LEO

Current View

Loading 3D Globe...

About Kosmos-44

Description loading...

Upcoming Passes

Passes for default location (London). Set your location on the main map for personalized predictions.

Altitude History

Loading altitude history...

Two-Line Element Set

1 00876U 64053A 26150.93042345 .00000118 00000-0 40674-4 0 9998
2 00876 65.0612 16.7062 0152027 269.2303 89.1378 14.65727546286141
Epoch: May 30, 2026 • Age: 9 hours

Current Status

Altitude 591.4 km
Velocity 7.62 km/s
Sub-Earth Point -64.90°S, 88.54°W
Type other

Most Searched